Tracking 22993 objects as of 12-May-2021
HD Live streaming from Space Station
objects crossing your sky now

HOT BIRD 1

Track HOT BIRD 1 now!
HOT BIRD 1 is classified as:


NORAD ID: 23537
Int'l Code: 1995-016B
Perigee: 36,024.1 km
Apogee: 36,102.8 km
Inclination: 10.8 °
Period: 1,449.9 minutes
Semi major axis: 42434 km
RCS: 7.9621 m2 (large)
Launch date: March 28, 1995
Source: European Telecommunications Satellite Organization (EUTE)
Launch site: FRENCH GUIANA (FRGUI)

Cable programming; direct-to-home broadcasting; 16 channels, Western Europe
aabbcc
Your satellite tracking list
Your tracking list is empty




NASA's NSSDC Master Catalog

Two Line Element Set (TLE):
1 23537U 95016B   21130.95164532 -.00000045  00000-0  00000-0 0  9993
2 23537  10.7981  35.0198 0009269  27.1190 168.5565  0.99317251 95209
Source of the keplerian elements: AFSPC